{"data":{"norad_id":66070,"intl_designator":"2025-235N","name":"STARLINK-35295","alt_names":[],"object_type":"PAYLOAD","status":"ACTIVE","operator":null,"country":"US","launch_date":"2025-10-19","launch_site_code":"AFETR","launch_vehicle":null,"mission":null,"orbit_class":"UNKNOWN","rcs_meters":null,"size_class":null,"mass_kg":null,"dimensions":null,"purposes":["comms"],"wikipedia_slug":null,"has_3d_model":false,"image_url":null,"decayed_at":null,"tle_current":{"epoch":"2026-09-19T17:04:18.937056Z","epoch_age_seconds":171203,"freshness":"FRESH","line1":"1 66070U 25235N   26262.71133029  .00021402  00000+0  64216-3 0  9990","line2":"2 66070  53.1610  63.5915 0000795  63.6690 296.4395 15.34429393 52634","mean_motion":15.34429393,"eccentricity":7.95e-5,"inclination_deg":53.161,"raan_deg":63.5915,"arg_perigee_deg":63.669,"mean_anomaly_deg":296.4395,"bstar":0.00064216,"rev_number":5263,"period_min":93.845960366063,"perigee_km":462.07203955747,"apogee_km":463.15971926529,"semimajor_km":6840.7528794114,"source":"CELESTRAK","updated_at":"2026-09-21T09:00:35.796222Z"}}}